When you browse on this site, cookies collect data to enhance your experience and personalize the content and advertising you see.
Visit our Privacy Policy to learn more. By continuing to use the site, you agree to this use of cookies and data.
  • In Österreich
  • Länderverzeichnis
  • Für 7 Tage
  • Wassertemperatur
  • Wetterkarte
  • News
  • Widgets
  • user-avatar
    Anmelden

    Stündliche Wetter Rio Bueno

    Heute, 9 Dezember, Montag

    Zeit Temperatur Niederschläge Wind Luftdruck Luftfeuchtigkeit
    00:00 +25°C° 0 mm 4 m/S 761 mmHg 94%
    01:00 +25°C° 0 mm 4 m/S 760 mmHg 94%
    02:00 +25°C° 0.1 mm 4 m/S 760 mmHg 94%
    03:00 +25°C° 0.1 mm 4 m/S 760 mmHg 94%
    04:00 +23°C° 0.1 mm 5 m/S 760 mmHg 94%
    05:00 +25°C° 0 mm 5 m/S 760 mmHg 94%
    06:00 +25°C° 0 mm 5 m/S 760 mmHg 94%
    07:00 +26°C° 0 mm 4 m/S 761 mmHg 94%
    08:00 +27°C° 0.1 mm 5 m/S 761 mmHg 89%
    09:00 +28°C° 0.1 mm 5 m/S 761 mmHg 83%
    10:00 +30°C° 0.1 mm 5 m/S 762 mmHg 78%
    11:00 +30°C° 0.1 mm 5 m/S 761 mmHg 75%
    12:00 +32°C° 0.1 mm 5 m/S 760 mmHg 73%
    13:00 +32°C° 0.1 mm 5 m/S 760 mmHg 70%
    14:00 +32°C° 0.3 mm 5 m/S 760 mmHg 72%
    15:00 +30°C° 0.3 mm 5 m/S 759 mmHg 74%
    16:00 +30°C° 0.3 mm 4 m/S 759 mmHg 77%
    17:00 +29°C° 0.3 mm 4 m/S 759 mmHg 82%
    18:00 +27°C° 0.3 mm 4 m/S 760 mmHg 88%
    19:00 +26°C° 0.3 mm 4 m/S 760 mmHg 94%
    20:00 +26°C° 0 mm 4 m/S 761 mmHg 94%
    21:00 +26°C° 0 mm 4 m/S 761 mmHg 94%
    22:00 +26°C° 0 mm 4 m/S 761 mmHg 95%
    23:00 +26°C° 0 mm 4 m/S 761 mmHg 95%

    Morgen, 10 Dezember, Dienstag

    Zeit Temperatur Niederschläge Wind Luftdruck Luftfeuchtigkeit
    00:00 +26°C° 0 mm 4 m/S 761 mmHg 95%
    01:00 +26°C° 0 mm 4 m/S 760 mmHg 95%
    02:00 +25°C° 0 mm 4 m/S 760 mmHg 95%
    03:00 +25°C° 0 mm 4 m/S 760 mmHg 95%
    04:00 +25°C° 0 mm 4 m/S 760 mmHg 95%
    05:00 +25°C° 0.1 mm 4 m/S 760 mmHg 95%
    06:00 +25°C° 0.1 mm 4 m/S 761 mmHg 95%
    07:00 +26°C° 0.1 mm 3 m/S 761 mmHg 94%
    08:00 +27°C° 0 mm 3 m/S 761 mmHg 87%
    09:00 +29°C° 0 mm 4 m/S 762 mmHg 79%
    10:00 +32°C° 0 mm 4 m/S 762 mmHg 71%
    11:00 +32°C° 0 mm 4 m/S 762 mmHg 69%
    12:00 +33°C° 0 mm 5 m/S 761 mmHg 66%
    13:00 +34°C° 0 mm 5 m/S 761 mmHg 64%
    14:00 +33°C° 0.3 mm 5 m/S 760 mmHg 71%
    15:00 +32°C° 0.3 mm 5 m/S 760 mmHg 78%
    16:00 +29°C° 0.3 mm 5 m/S 759 mmHg 85%
    17:00 +29°C° 0.1 mm 4 m/S 760 mmHg 88%
    18:00 +28°C° 0.1 mm 4 m/S 760 mmHg 91%
    19:00 +27°C° 0.1 mm 4 m/S 761 mmHg 94%
    20:00 +26°C° 0 mm 4 m/S 761 mmHg 94%
    21:00 +26°C° 0 mm 4 m/S 761 mmHg 94%
    22:00 +26°C° 0 mm 4 m/S 762 mmHg 95%
    23:00 +26°C° 0 mm 4 m/S 761 mmHg 94%

    übermorgen, 11 Dezember, Mittwoch

    Zeit Temperatur Niederschläge Wind Luftdruck Luftfeuchtigkeit
    00:00 +26°C° 0 mm 4 m/S 761 mmHg 94%
    01:00 +26°C° 0 mm 4 m/S 761 mmHg 94%
    02:00 +25°C° 0 mm 4 m/S 761 mmHg 94%
    03:00 +25°C° 0 mm 4 m/S 761 mmHg 94%
    04:00 +25°C° 0 mm 4 m/S 760 mmHg 95%
    05:00 +25°C° 0.1 mm 4 m/S 761 mmHg 95%
    06:00 +26°C° 0.1 mm 4 m/S 761 mmHg 95%
    07:00 +26°C° 0.1 mm 4 m/S 762 mmHg 95%
    08:00 +27°C° 0 mm 4 m/S 762 mmHg 88%
    09:00 +29°C° 0 mm 4 m/S 762 mmHg 81%
    10:00 +30°C° 0 mm 4 m/S 763 mmHg 73%
    11:00 +32°C° 0 mm 4 m/S 762 mmHg 70%
    12:00 +33°C° 0 mm 4 m/S 761 mmHg 66%
    13:00 +33°C° 0 mm 4 m/S 761 mmHg 63%
    14:00 +32°C° 0.1 mm 5 m/S 760 mmHg 68%
    15:00 +32°C° 0.1 mm 5 m/S 760 mmHg 73%
    16:00 +30°C° 0.1 mm 6 m/S 760 mmHg 78%
    17:00 +28°C° 0 mm 5 m/S 760 mmHg 83%
    18:00 +27°C° 0 mm 5 m/S 760 mmHg 88%
    19:00 +26°C° 0 mm 4 m/S 761 mmHg 93%
    20:00 +26°C° 0 mm 4 m/S 761 mmHg 94%
    21:00 +26°C° 0 mm 4 m/S 761 mmHg 94%
    22:00 +26°C° 0 mm 4 m/S 761 mmHg 94%
    23:00 +26°C° 0 mm 5 m/S 761 mmHg 94%

    12 Dezember, Donnerstag

    Zeit Temperatur Niederschläge Wind Luftdruck Luftfeuchtigkeit
    00:00 +26°C° 0 mm 5 m/S 761 mmHg 94%
    01:00 +26°C° 0 mm 5 m/S 761 mmHg 94%
    02:00 +26°C° 0.1 mm 5 m/S 760 mmHg 94%
    03:00 +26°C° 0.1 mm 5 m/S 760 mmHg 94%
    04:00 +26°C° 0.1 mm 6 m/S 760 mmHg 95%
    05:00 +26°C° 0.1 mm 6 m/S 760 mmHg 94%
    06:00 +26°C° 0.1 mm 6 m/S 760 mmHg 94%
    07:00 +26°C° 0.1 mm 6 m/S 761 mmHg 94%
    08:00 +27°C° 0.1 mm 6 m/S 761 mmHg 89%
    09:00 +28°C° 0.1 mm 6 m/S 761 mmHg 84%
    10:00 +29°C° 0.1 mm 6 m/S 761 mmHg 80%
    11:00 +29°C° 0.1 mm 6 m/S 761 mmHg 76%
    12:00 +30°C° 0.1 mm 6 m/S 760 mmHg 72%
    13:00 +32°C° 0.1 mm 6 m/S 760 mmHg 68%
    14:00 +30°C° 0.1 mm 6 m/S 759 mmHg 70%
    15:00 +30°C° 0.1 mm 6 m/S 759 mmHg 72%
    16:00 +29°C° 0.1 mm 6 m/S 758 mmHg 74%
    17:00 +28°C° 0.1 mm 6 m/S 759 mmHg 80%
    18:00 +27°C° 0.1 mm 6 m/S 759 mmHg 85%
    19:00 +26°C° 0.1 mm 6 m/S 759 mmHg 90%
    20:00 +26°C° 0 mm 6 m/S 759 mmHg 91%
    21:00 +26°C° 0 mm 6 m/S 760 mmHg 91%
    22:00 +26°C° 0 mm 7 m/S 760 mmHg 91%
    23:00 +26°C° 0.1 mm 6 m/S 759 mmHg 91%

    13 Dezember, Freitag

    Zeit Temperatur Niederschläge Wind Luftdruck Luftfeuchtigkeit
    00:00 +26°C° 0.1 mm 6 m/S 759 mmHg 91%
    01:00 +26°C° 0.1 mm 6 m/S 759 mmHg 91%
    02:00 +26°C° 0.2 mm 6 m/S 759 mmHg 92%
    03:00 +25°C° 0.2 mm 5 m/S 758 mmHg 93%
    04:00 +25°C° 0.2 mm 5 m/S 758 mmHg 94%
    05:00 +25°C° 0.1 mm 5 m/S 758 mmHg 94%
    06:00 +25°C° 0.1 mm 5 m/S 759 mmHg 94%
    07:00 +25°C° 0.1 mm 5 m/S 759 mmHg 94%
    08:00 +27°C° 0 mm 5 m/S 759 mmHg 87%
    09:00 +28°C° 0 mm 5 m/S 759 mmHg 81%
    10:00 +29°C° 0 mm 5 m/S 759 mmHg 74%
    11:00 +30°C° 0.1 mm 5 m/S 759 mmHg 72%
    12:00 +32°C° 0.1 mm 5 m/S 758 mmHg 70%
    13:00 +32°C° 0.1 mm 5 m/S 757 mmHg 67%
    14:00 +30°C° 0.5 mm 4 m/S 757 mmHg 74%
    15:00 +29°C° 0.5 mm 4 m/S 757 mmHg 81%
    16:00 +28°C° 0.5 mm 4 m/S 756 mmHg 88%
    17:00 +27°C° 0.4 mm 3 m/S 757 mmHg 90%
    18:00 +27°C° 0.4 mm 3 m/S 757 mmHg 91%
    19:00 +26°C° 0.4 mm 3 m/S 758 mmHg 93%
    20:00 +25°C° 0.1 mm 2 m/S 758 mmHg 93%
    21:00 +25°C° 0.1 mm 2 m/S 758 mmHg 93%
    22:00 +25°C° 0.1 mm 2 m/S 759 mmHg 93%
    23:00 +25°C° 0 mm 2 m/S 758 mmHg 94%

    14 Dezember, Samstag

    Zeit Temperatur Niederschläge Wind Luftdruck Luftfeuchtigkeit
    00:00 +25°C° 0 mm 2 m/S 758 mmHg 94%
    01:00 +24°C° 0 mm 2 m/S 758 mmHg 94%
    02:00 +24°C° 0 mm 1 m/S 758 mmHg 93%
    03:00 +24°C° 0 mm 1 m/S 757 mmHg 93%
    04:00 +24°C° 0 mm 1 m/S 757 mmHg 92%
    05:00 +24°C° 0 mm 1 m/S 757 mmHg 91%
    06:00 +24°C° 0 mm 1 m/S 758 mmHg 91%
    07:00 +24°C° 0 mm 1 m/S 758 mmHg 90%
    08:00 +26°C° 0 mm 2 m/S 759 mmHg 81%
    09:00 +28°C° 0 mm 2 m/S 759 mmHg 73%
    10:00 +30°C° 0 mm 2 m/S 759 mmHg 64%
    11:00 +31°C° 0 mm 2 m/S 759 mmHg 62%
    12:00 +31°C° 0 mm 3 m/S 758 mmHg 61%
    13:00 +33°C° 0 mm 3 m/S 757 mmHg 60%
    14:00 +31°C° 0.3 mm 3 m/S 757 mmHg 66%
    15:00 +30°C° 0.3 mm 3 m/S 757 mmHg 73%
    16:00 +29°C° 0.3 mm 2 m/S 757 mmHg 79%
    17:00 +28°C° 0.1 mm 2 m/S 757 mmHg 83%
    18:00 +27°C° 0.1 mm 2 m/S 758 mmHg 87%
    19:00 +26°C° 0.1 mm 2 m/S 758 mmHg 91%
    20:00 +25°C° 0 mm 2 m/S 758 mmHg 92%
    21:00 +25°C° 0 mm 2 m/S 759 mmHg 92%
    22:00 +25°C° 0 mm 3 m/S 759 mmHg 93%
    23:00 +25°C° 0 mm 2 m/S 759 mmHg 93%
    Mehr zeigen